Regional Weather Roundup
Issued by NWS

Current Version | Previous Version | Graphics & Text | Print | Product List | Glossary On
Versions: 1 2 3 4 5 6 7 8 9 10 11 12 13 14 15 16 17 18 19 20 21 22 23 24 25 26 27 28 29 30 31 32 33 34 35 36 37 38 39 40 41 42 43 44 45 46 47 48 49 50
000
ASHW40 PHFO 202343
RWRHI

WEATHER ROUNDUP FOR HAWAII
NATIONAL WEATHER SERVICE HONOLULU HI
100 PM HST SUN MAY 20 2018

THIS IS AN AUTOMATED REPORT THAT HAS NOT BEEN QUALITY CONTROLLED.

NOTE..."FAIR" INDICATES FEW OR NO CLOUDS BELOW 12,000 FEET WITH NO
SIGNIFICANT WEATHER AND/OR OBSTRUCTIONS TO VISIBILITY.

* - THESE SITES REPORT LIMITED FIELDS
# - BUOY DATA PROVIDED BY PACIFIC ISLANDS OCEAN OBSERVING SYSTEM.

HIZ001>004-210000-
KAUAI-NIIHAU-

CITY           SKY/WX    TMP DP  RH WIND       PRES   REMARKS
LIHUE APT      PTSUNNY   81  71  71 NE20      30.12F
PORT ALLEN*      N/A     82 N/A N/A NE24G32     N/A
POIPU*           N/A     81 N/A N/A NE10G23     N/A
PRINCEVILLE*     N/A     77 N/A N/A E12G18      N/A
KOKOLE POINT*  NOT AVBL
MOLOAA DAIRY*    N/A     79  70  73 E6G14       N/A
WAIMEA HTS*      N/A     84  64  51 E12G20      N/A
PUU OPAE*        N/A     77  59  53 SW6G18      N/A
PUU LUA*       NOT AVBL
MAKAHA RIDGE*    N/A     75  61  60 W2          N/A
$$

HIZ005>011-210000-
OAHU-

CITY           SKY/WX    TMP DP  RH WIND       PRES   REMARKS
HONOLULU       MOSUNNY   87  63  44 NE22G30   30.07F
KALAELOA       SUNNY     87  64  46 NE14G22   30.08F
KANEOHE MCB    CLOUDY    81  68  64 E14G22    30.08F
WHEELER FIELD  PTSUNNY   80  65  59 E21       30.08F
BELLOWS*         N/A    N/A N/A N/A NE18        N/A
KAHUKU*          N/A    N/A N/A N/A NE9G21      N/A
WHEELER*         N/A    N/A N/A N/A NE14G23     N/A
WAIANAE HARBOR   N/A    N/A N/A N/A E10G20      N/A
DILLINGHAM*    NOT AVBL
KAHUKU TRN*      N/A     79  68  69 NW6G21      N/A
KAWAILOA*        N/A     75  64  69 E13G24      N/A
KII*             N/A     81  68  65 E14         N/A
MAKUA RANGE*     N/A     70  48  46 E14G26      N/A
OAHU FOREST NW   N/A    N/A N/A N/A E25         N/A
SCHOFIELD BRK*   N/A     79  61  53 NE10        N/A
SCHOFIELD S*   NOT AVBL
WAIANAE VLY*   NOT AVBL
KUAOKALA*        N/A     75  64  69 E23G37      N/A
HONOULIUULI*   NOT AVBL
MOKUOLOE IS*   NOT AVBL
PALEHUA*         N/A     75  59  57 NE14G24     N/A
WAIAWA PHB*    NOT AVBL
$$

HIZ012>013-210000-
MOLOKAI-

CITY           SKY/WX    TMP DP  RH WIND       PRES   REMARKS
MOLOKAI AIRPT  SUNNY     82  66  58 NE16G28   30.09F
KALAUPAPA      NOT AVBL
MAKAPULAPAI*     N/A     81  66  61 E15         N/A
MOLOKAI 1*     NOT AVBL
PUU ALII*        N/A     65  60  84 N2G12       N/A
$$

HIZ016-210000-
KAHOOLAWE-

CITY           SKY/WX    TMP DP  RH WIND       PRES   REMARKS
KAHOOLAWE*     NOT AVBL
HAKIOAWA*        N/A     71  70  95 MISG      30.49
HONOKANAIA*    NOT AVBL
KANELOA*         N/A     77  66  69 E15       30.15S
KEALIALALO*    NOT AVBL
LUA MAKIKA*    NOT AVBL
$$

HIZ014>015-210000-
LANAI-

CITY           SKY/WX    TMP DP  RH WIND       PRES   REMARKS
LANAI CITY     NOT AVBL
LANAI 1*       NOT AVBL
$$

HIZ017>028-210000-
MAUI-

CITY           SKY/WX    TMP DP  RH WIND       PRES   REMARKS
KAHULUI        MOSUNNY   79  71  76 NE18      30.08F
KAPALUA-W MAUI MOSUNNY   79  66  65 N17G30    30.09
HANA AIRPORT   NOT AVBL
HANA*            N/A     77 N/A N/A NE14G21     N/A
HALEAKALA SUMM   N/A     48  48 100 E30         N/A
MAALAEA BAY*     N/A     79 N/A N/A NE18G30     N/A
HALEAKALA*     NOT AVBL
KAUPO GAP*     NOT AVBL
KULA 1*          N/A     61  55  80 W6G17       N/A
$$

HIZ023>026-210000-
BIG ISLAND OF HAWAII COAST AND LOWER SLOPES-

CITY           SKY/WX    TMP DP  RH WIND       PRES   REMARKS
KAILUA KONA    MOSUNNY   82  68  62 SW8       30.02F
HILO           CLOUDY    77  73  88 E17       30.08F FOG
HONOKAA*         N/A     70 N/A N/A VRB1        N/A
KAWAIHAE MWT*    N/A     82 N/A N/A W9          N/A
KAWAIHAE*        N/A     81 N/A N/A SW9       30.00F
SOUTH POINT*     N/A     79 N/A N/A N17G24      N/A
UPOLU AIRPORT* NOT AVBL
KAMUELA*       CLEAR     72  66  83 NE24G36   30.11S
HAKALAU*         N/A     60  60  99 E5          N/A
KALOKO-HONOKO*   N/A     81  68  65 SW6       30.01F
PALI 2*          N/A     79  63  57 NE12        N/A
KEALAKOMO*       N/A     82  70  65 E15         N/A
KAUPULEHU*       N/A     73  68  83 SW10G16     N/A
KAPAPALA*        N/A     78  67  68 E8G21       N/A
LOWER KAHUKU*    N/A     66  63  88 N2G12       N/A
PUHE CS*         N/A     82  68  61 W3G12       N/A
PUHO CS*         N/A     84  68  57 W3G10       N/A
PTA KEAMUKU*     N/A     72  64  78 NE18        N/A
WAIKOLOA*        N/A     81  64  57 NE12G23     N/A
$$

HIZ027>028-210000-
BIG ISLAND OF HAWAII INTERIOR AND SUMMMITS-

CITY           SKY/WX    TMP DP  RH WIND       PRES   REMARKS
BRADSHAW FIELD NOT AVBL
MK VISITOR CEN   N/A     50  46  87 SE13        N/A
MAUNA KEA*       N/A     45  36  70 E10         N/A
MAUNA LOA*       N/A     57  37  47 MISG        N/A
MAUNA LOA 1*   NOT AVBL
PTA KIPUKA*      N/A     63  57  82 SE6         N/A
PTA RANGE 17*    N/A     63  57  82 SE13G20     N/A
PTA WEST*        N/A     54  48  82 W7G17       N/A
NENE CABIN*      N/A     54  54 100 E12G20      N/A
AHUMOA*          N/A     63  57  82 SW6G12      N/A
PTA PORTABLE*  NOT AVBL
PUU MALI*        N/A     59  57  94 E22         N/A
$$

HIC003-210000-
NORTHWEST ISLANDS-

CITY           SKY/WX    TMP DP  RH WIND       PRES   REMARKS
MIDWAY ISLAND  SUNNY     77  66  69 NE9       30.28S
MIDWAY NOS*      N/A     73 N/A N/A MISG      30.26F
FRENCH FRIGATE NOT AVBL
$$

PHZ110>124-180-210000-
BUOY REPORTS

STATION/POSITION TIME  TEMP    WIND        PRES    WAVE   SWELL
                       AIR SEA DIR/SP/G            HT/PER HT/DIR
                 (UTC) (F)     (DEG/KT/KT) (MB)    (FT/S) (FT/D)
BUOY 51101       2250   72 75   40/ 16/ 19 1023.5F   6/ 8   3
BUOY 51100       NOT AVBL
BUOY 51002       2310   80 80   70/ 17/ 21 1015.5
BUOY 51003       2250   78 79   50/ 17/ 21 1017.1F   8/ 8   5/ 70
BUOY 51004       2310   78 79   70/ 17/ 23   N/A
WAIMEA BAY#      NOT AVBL
MOKAPU POINT#    2304      77                N/A     7/ 8   2/ 20
LANAI#           NOT AVBL
BARBERS PT 2#    NOT AVBL
PAUWELA#         2230      77                N/A     8/ 8   2/360
HILO#            2257      78                N/A     8/ 9   2/350
KANEOHE BAY#     2254      77                N/A     7/ 8   2/ 10
KANEOHE BAY 2#   NOT AVBL
HANALEI#         NOT AVBL
KAHULUI HARBOR   2312   76 79   60/ 12/ 19 1018.6
HONOLULU HARBOR  2312   81 78   60/ 13/ 23 1017.6
PEARL HARBOR#    2300      78                N/A     4/17   2/170
KILO NALU        NOT AVBL
HILO HARBOR      2312   74 79   70/  9/ 13 1018.2
MOKUOLOE         2236   81 79   90/  8/ 16 1019.9F
NAWILIWILI       2312   77 80   60/ 16/ 20 1019.3
WHOTS BUOY       NOT AVBL
BUOY 51028       NOT AVBL
$$

......................KEY........................................
  SKY/WX - SKY CONDITIONS/PRESENT WEATHER
  TMP    - TEMPERATURE IN FAHRENHEIT
  DWPT   - DEWPOINT IN FAHRENHEIT
  RH     - RELATIVE HUMIDITY IN PERCENT
  WIND   - DIRECTION AND SPEED /MPH FOR ISLANDS...KTS FOR BUOYS/
  PRES   - MEAN SEA LEVEL PRESSURE IN INCHES OF HG
  VSB    - VISIBILITY IN MILES
  HX     - HEAT INDEX
  WCI    - WIND CHILL INDEX
  VRB    - VARIABLE WIND DIRECTION
  N/A    - NOT AVAILABLE




USA.gov is the U.S. government's official web portal to all federal, state and local government web resources and services.